Flag for Austria Weather past 2 weeks in Linz, Upper Austria, Austria

Now
25 °F

Clear.


Feels Like: 25 °F
Forecast: 25 / 34 °F
Wind: 1 mph from North

Location: Linz / Hoersching-Flughafen

Current Time: Feb 1, 2015 at 2:09:40 AM

Latest Report: Feb 1, 2015 at 1:50 AM


Visibility: 10 mi

Pressure: 29.21 "Hg

Humidity: 93%

Dew point: 23 °F

Location of LinzLocation

Historic Weather in Linz — Graph

°F

Linz temperature yesterday

Maximum temperature yesterday: 39 °F (at 1:20 PM)
Minimum temperature yesterday: 25 °F (at 11:20 PM)
Average temperature yesterday: 32 °F

Past Weeks' High & Low Weather Summary

 TemperatureHumidityPressure
High43 °F (Jan 22, 12:20 PM)100% (Jan 17, 4:20 PM)30.33 "Hg (Jan 17, 4:20 PM)
Low25 °F (Jan 31, 11:20 PM)61% (Jan 31, 2:20 PM)28.74 "Hg (Jan 30, 4:50 AM)
Average34 °F87%29.83 "Hg
* Reported Jan 17 12:20 AM — Feb 1 12:50 AM, Linz, Weather by CustomWeather, © 2014

Note: Actual official high and low records may vary slightly from our data, if they occured in-between our weather recording intervals... More about our weather records

Advertising

Linz weather history for previous 24 hours

 ConditionsComfort  
Time TempWeatherWind HumidityBarometerVisibility
12:50 AM
Feb 1
25 °FClear.3 mph93%29.21 "Hg10 mi
12:20 AM25 °FClear.2 mph93%29.21 "Hg10 mi
11:50 PM
Jan 31
25 °FClear.2 mph93%29.21 "Hg10 mi
11:20 PM25 °FClear.3 mph93%29.21 "Hg10 mi
10:50 PM27 °FClear.2 mph93%29.21 "Hg10 mi
10:20 PM27 °FClear.2 mph93%29.18 "Hg10 mi
9:50 PM27 °FClear.1 mph86%29.18 "Hg10 mi
9:20 PM27 °FClear.1 mph86%29.18 "Hg10 mi
8:50 PM28 °FClear.2 mph86%29.18 "Hg10 mi
8:20 PM28 °FClear.3 mph86%29.18 "Hg10 mi
7:50 PM28 °FClear.5 mph86%29.18 "Hg10 mi
7:20 PM30 °FClear.2 mph80%29.15 "Hg10 mi
6:50 PM30 °FClear.1 mph80%29.15 "Hg10 mi
6:20 PM32 °FClear.1 mph75%29.15 "Hg10 mi
5:50 PM34 °FClear.2 mph70%29.15 "Hg10 mi
5:20 PM34 °FClear.2 mph70%29.12 "Hg10 mi
4:50 PM36 °FScattered clouds.2 mph65%29.12 "HgN/A
4:20 PM37 °FScattered clouds.5 mph65%29.12 "HgN/A
3:50 PM37 °FScattered clouds.7 mph65%29.12 "HgN/A
3:20 PM39 °FScattered clouds.10 mph61%29.12 "HgN/A
2:50 PM39 °FPassing clouds.14 mph61%29.12 "HgN/A
2:20 PM39 °FPassing clouds.16 mph61%29.09 "HgN/A
1:50 PM39 °FScattered clouds.18 mph65%29.09 "HgN/A
1:20 PM39 °FPassing clouds.15 mph65%29.09 "HgN/A
12:50 PM37 °FScattered clouds.15 mph70%29.09 "HgN/A
12:20 PM37 °FPartly sunny.10 mph70%29.09 "HgN/A
11:50 AM36 °FPartly sunny.8 mph81%29.09 "HgN/A
11:20 AM34 °FBroken clouds.7 mph87%29.09 "HgN/A
10:50 AM32 °FSnow flurries. Partly sunny.7 mph93%29.09 "Hg3 mi
10:20 AM32 °FLight mixture of precip. Partly sunny.7 mph93%29.09 "HgN/A
9:50 AM32 °FLight snow. Partly sunny.8 mph87%29.09 "HgN/A
9:20 AM32 °FLight snow. Broken clouds.2 mph80%29.06 "HgN/A
8:50 AM32 °FPartly sunny.2 mph80%29.06 "HgN/A
8:20 AM32 °FPartly sunny.5 mph80%29.06 "HgN/A
7:50 AM32 °FPartly sunny.9 mph75%29.03 "HgN/A
7:20 AM28 °FPassing clouds.8 mph86%29.03 "HgN/A
6:50 AM30 °FPassing clouds.9 mph80%29.03 "HgN/A
6:20 AM32 °FPassing clouds.10 mph80%29.03 "HgN/A
5:50 AM32 °FPassing clouds.13 mph80%29.00 "HgN/A
5:20 AM32 °FLight snow. Passing clouds.16 mph80%29.00 "HgN/A
4:50 AM32 °FLight snow. Passing clouds.16 mph87%28.97 "HgN/A
3:50 AM30 °FLight snow. Passing clouds.9 mph93%28.94 "Hg4 mi
3:20 AM30 °FSnow flurries. Passing clouds.5 mph80%28.94 "Hg2 mi
2:50 AM28 °FSnow flurries. Passing clouds.7 mph86%28.94 "HgN/A
2:20 AM27 °FPassing clouds.2 mph93%28.94 "HgN/A
Weather by CustomWeather, © 2014

See weather overviewHow to use our weather pages